Location: Bodest
(46.3000°N, 22.5667°E)
Time: 23:58:41
(UTC+00:00)

H-2A R/B - Pass Details

Date: 16 October 2021
Orbit: 577 x 654 km, 98.5° (Epoch: 26 November)

Event Time Altitude Azimuth Distance (km) Brightness Sun altitude
Rises 18:12:53 0° 5° (N) 2,805 5.6 -26.8°
Reaches altitude 10° 18:15:11 10° 356° (N) 1,901 4.8 -27.1°
Maximum altitude 18:18:52 33° 292° (WNW) 984 3.6 -27.8°
Drops below altitude 10° 18:22:34 10° 228° (SW) 1,902 4.9 -28.4°
Sets 18:24:52 0° 219° (SW) 2,806 5.7 -28.7°
